www.pogodaiklimat.ru

Погода и климат >> Архив погоды >> Россия >> Приморский край >> Владивосток


АРХИВ ПОГОДЫ в Владивостоке

Время (UTC), дата Ветер
(напр.,м/с)
 
Видим.   Явления Облачность Т
(С)
Тd
(С)
f
(%)
Тe
(С)
Тes
(С)
Комфортность P
(гПа)
Po
(гПа)
Тmin
(С)
Tmax
(С)
R
(мм)
R24
(мм)
S
(см)
06 19.08 Ю 4 50 км 10/10 600 м
[Sc]
+18.1 +17.1 94 +18 +18 прохладно 1012.6 990.7
09 19.08 ЮЗ 4 50 км 8/6 300 м
[St Ac cast]
+17.2 +16.5 96 +17 +17 прохладно 1012.7 990.7 +19.1 0.0
12 19.08 Ю 5 500 м туман ?/? +16.0 +15.8 99 +15 +15 прохладно 1013.6 991.5
15 19.08 Ю 4 500 м туман ?/? +16.4 +16.3 99 +16 +16 прохладно 1014.2 992.1
18 19.08 Ю 1 10 км в посл. час туман 10/10 300 м
[St]
+16.6 +16.4 99 +17 +17 по сезону 1014.0 991.9
21 19.08 Ю 2 500 м туман ?/? +16.7 +16.5 99 +17 +17 по сезону 1013.8 991.7 +16.0
00 20.08 ЮЗ 3 20 км в посл. час туман 10/10 300 м
[St]
+17.5 +17.3 99 +17 +17 по сезону 1013.7 991.7
03 20.08 ЮЗ 2 50 км 10/10 600 м
[Sc]
+20.0 +16.7 81 +23 +23 комфорт 1013.3 991.5
06 20.08 Ю 5 50 км 8/8 600 м
[Sc]
+21.0 +17.6 81 +25 +26 комфорт 1011.5 989.8
09 20.08 Ю 3 50 км 8/8 600 м
[Sc]
+19.4 +16.6 84 +22 +22 комфорт 1011.3 989.5 +21.6
12 20.08 Ю 3 50 км 4/3 600 м
[Sc Ci fib]
+17.5 +16.6 94 +17 +17 прохладно 1012.6 990.6
15 20.08 Ю 5 50 км ясно +17.8 +17.5 98 +17 +17 по сезону 1011.7 989.8
18 20.08 Ю 5
{10}
50 км 10/10 600 м
[Sc]
+17.6 +17.5 99 +17 +17 по сезону 1010.9 989.0
21 20.08 Ю 9-11
{13}
10 км слаб. морось 10/10 300 м
[St]
+17.0 +16.8 99 +16 +16 прохладно 1011.0 989.0 +17.0 0.0
00 21.08 ЮВ 10-14
{16}
20 км {морось} 10/10 300 м
[St]
+16.2 +16.0 99 +14 +14 прохладно 1010.9 988.9 +16.2
03 21.08 Ю 13-17
{18}
20 км слаб. дождь 10/0 300 м
[As op]
+16.5 +16.2 98 +14 +14 холодно 1009.6 987.6
06 21.08 ЮВ 13-19
{23}
50 км слаб. дождь 10/0 300 м
[As op]
+16.8 +16.1 96 +15 +15 холодно 1007.6 985.7
09 21.08 ЮВ 9-14
{21}
500 м сильн. дождь {туман} туман ?/? +16.3 +16.3 100 +14 +14 холодно 1007.5 985.5 +17.0 15
12 21.08 ЮВ 9-14
{16}
10 км слаб. дождь {туман} 10/8 200 м
[Frnb As op]
+16.9 +16.9 100 +15 +15 прохладно 1008.2 986.3
15 21.08 ЮВ 8-11
{15}
10 км слаб. дождь 10/8 200 м
[Frnb As op]
+17.1 +17.1 100 +16 +16 прохладно 1007.8 985.9
18 21.08 ЮВ 7-10
{13}
10 км слаб. ливневой дождь {гроза} 10/10 200 м
[Cb calv]
+17.5 +17.5 100 +17 +17 по сезону 1007.0 985.1
21 21.08 ЮВ 4
{10}
50 км слаб. морось {дождь} 10/10 300 м
[St]
+17.6 +17.6 100 +17 +17 по сезону 1007.3 985.4 +16.3 24
00 22.08 ЮВ 3 50 км {ливн. осадки, дождь} 10/10 600 м
[Sc]
+18.8 +18.5 98 +20 +20 тепло 1006.8 985.1
03 22.08 ЮВ 5 50 км в посл. час ливневой дождь 9/9 300 м
[Cb cap]
+19.3 +19.2 99 +21 +22 комфорт 1006.0 984.3
06 22.08 Ю 6
{10}
50 км {ливн. осадки} 8/4 600 м
[Cu hum Ac cuf]
+18.9 +17.4 91 +20 +21 по сезону 1005.5 983.8
09 22.08 Ю 2 50 км 8/3 600 м
[Sc diur, vesp Ac cuf]
+19.1 +18.0 93 +21 +22 комфорт 1004.7 983.0 +20.9 3
12 22.08 ЮЗ 3 50 км 6/6 600 м
[Sc]
+18.0 +17.2 95 +18 +18 по сезону 1005.6 983.9
15 22.08 С 4 50 км 8/8 600 м
[Sc]
+17.6 +17.1 97 +17 +17 по сезону 1006.0 984.2
18 22.08 З 2 50 км 8/8 600 м
[Sc]
+17.5 +17.2 98 +18 +18 по сезону 1005.1 983.3
21 22.08 Ю 2 50 км 10/10 600 м
[Sc]
+17.5 +17.3 99 +18 +18 по сезону 1005.2 983.4 +17.4
00 23.08 ЮЗ 4 50 км {ливн. осадки} 10/10 300 м
[St]
+17.9 +17.4 97 +18 +18 по сезону 1005.5 983.8
03 23.08 ЮЗ 3 50 км 8/3 600 м
[Cu Sc Ac lent Ci]
+20.7 +17.8 83 +25 +31 комфорт 1004.8 983.2
06 23.08 ЮЗ 4 50 км слаб. ливневой дождь {гроза} 8/3 600 м
[Cb calv Ac lent]
+19.5 +18.4 93 +22 +24 комфорт 1004.3 982.7
09 23.08 Ю 2 50 км {ливн. осадки} 6/3 600 м
[Sc Ac lent Cc]
+19.0 +17.8 93 +21 +21 комфорт 1005.2 983.5 +22.1 1
12 23.08 Ю 3 4000 м дождь {ливн. осадки} 10/0 600 м
[As op]
+17.4 +17.1 98 +17 +17 по сезону 1007.3 985.4
15 23.08 Ю 7
{10}
500 м сильн. дождь {туман} туман ?/? +16.6 +16.4 99 +15 +15 прохладно 1007.6 985.6
18 23.08 Ю 5 10 км слаб. дождь {туман} 10/0
[As op]
+15.4 +15.4 100 +14 +14 прохладно 1008.8 986.7
21 23.08 Ю 4 500 м слаб. морось {дождь} туман ?/? +14.9 +14.9 100 +14 +14 прохладно 1009.8 987.7 +14.9 45
00 24.08 Ю 4 500 м сильн. морось {дождь} туман ?/? +15.1 +15.1 100 +14 +14 прохладно 1011.0 988.8
03 24.08 Ю 6 20 км {морось, туман} 10/10 300 м
[St]
+15.5 +15.3 99 +14 +14 холодно 1011.0 988.8
06 24.08 Ю 7 50 км {морось, туман} 9/9 600 м
[Sc]
+16.4 +14.7 90 +15 +15 холодно 1009.7 987.7
09 24.08 Ю 4 50 км слаб. дождь 9/0 600 м
[As op Ci fib]
+15.6 +14.7 94 +15 +15 холодно 1010.9 988.8 +16.8 5
12 24.08 З 1 50 км {дождь} 10/10 600 м
[Sc]
+15.7 +15.1 96 +16 +16 прохладно 1011.9 989.8
15 24.08 З 2 50 км 10/10 600 м
[Sc]
+16.3 +15.8 97 +16 +16 по сезону 1011.8 989.7
18 24.08 С 2 50 км 10/10 600 м
[Sc]
+16.3 +16.1 99 +16 +16 по сезону 1011.9 989.8
21 24.08 С 3 50 км 10/10 600 м
[Sc]
+16.1 +16.0 99 +16 +16 по сезону 1012.7 990.6 +15.2 0.0
00 25.08 С 3 50 км 8/3 600 м
[Sc Ac lent]
+18.0 +15.7 86 +18 +20 по сезону 1013.3 991.3
03 25.08 С 3 50 км 5/5 1000 м
[Sc diur, vesp]
+20.9 +15.2 70 +24 +31 комфорт 1012.9 991.1
06 25.08 С 2 50 км 6/6 1000 м
[Cu hum]
+23.1 +15.1 61 +27 +31 душно 1011.3 989.7
09 25.08 ЮЗ 3 50 км 6/6 600 м
[Sc]
+20.3 +16.5 79 +24 +24 комфорт 1012.0 990.2 +23.3
12 25.08 ЮЗ 5 50 км 6/6 600 м
[Sc]
+18.4 +16.9 91 +19 +19 по сезону 1013.1 991.2
15 25.08 штиль 0 10 км слаб. дождь 10/10 600 м
[Sc]
+17.9 +16.9 94 +18 +18 по сезону 1012.8 990.8
18 25.08 В 2 50 км {дождь} 8/8 600 м
[Sc]
+17.4 +16.7 96 +18 +18 по сезону 1012.7 990.7
21 25.08 ЮВ 2 20 км 10/10 600 м
[Sc]
+17.4 +17.1 98 +18 +18 по сезону 1013.4 991.4 +17.2 0.6
00 26.08 Ю 2 50 км 10/10 600 м
[Sc]
+19.0 +17.4 90 +21 +21 комфорт 1013.9 992.1

 

Местоположение метеостанции Владивосток (Приморский край, Россия): широта 43.12 долгота 131.90 высота над уровнем моря 188 м.

В архиве по умолчанию представлена погода в Владивостоке за последнюю неделю. Архивные данные за месяц целиком и за предыдущие месяцы, начиная с января 2011 года, Вы можете получить, выбрав интересующий диапазон дат из раскрывающегося списка и нажав кнопку "Ввод!".


*Определитесь, кто Вы:
робот инопланетянин человек

Внимание! Время в таблицах - всемирное. Для получения местного времени необходимо прибавить поправку, которая равна 10 ч.

Смотрите также архив погоды в соседних городах и на ближайших метеорологических станциях:

Погода на Мысе Назимова (Приморский край, Россия) (8 км)
Погода в Барабаше (Приморский край, Россия) (42 км)
Погода в Многоудобном (Приморский край, Россия) (60 км)
Погода в Находке (Приморский край, Россия) (81 км)
Погода в Гамове (Приморский край, Россия) (84 км)
Погода в Тимирязевском (Приморский край, Россия) (85 км)
Погода в Партизанске (Приморский край, Россия) (89 км)
Погода в Посьете (Приморский край, Россия) (104 км)
Погода в Полтавке (Приморский край, Россия) (112 км)
Погода в Анучино (Приморский край, Россия) (130 км)

Пояснения к столбцам:

Ветер - указаны скорость ветра в м/с - средняя за 10 мин, порывы в срок и между сроками (в фигурных скобках) и направление, откуда дует ветер: С - северный, СВ - северо-восточный, В - восточный, ЮВ - юго-восточный, Ю - южный, ЮЗ - юго-западный, З - западный, СЗ - северо-западный.
Видимость - горизонтальная дальность видимости в метрах или километрах. При видимости от 1 до 10 км при отсутствии осадков обычно наблюдается дымка, при ухудшении видимости до 1 км и менее - туман. В сухую погоду видимость может ухудшаться дымом, пылью или мглою.
Явления - указаны атмосферные явления, наблюдавшиеся в срок или в последний час перед сроком; фигурными скобками обозначены явления, наблюдавшиеся между сроками (за 1-3 часа до срока); квадратными скобками обозначены град или гололедные отложения с указанием их диаметра в мм.
Облачность - указаны через наклонную черту общая и нижняя облачность в баллах и высота нижней границы облаков в метрах; квадратными скобками обозначены формы облаков: Ci - перистые, Cs - перисто-слоистые, Cc - перисто-кучевые, Ac - высококучевые, As - высокослоистые, Sc - слоисто-кучевые, Ns - слоисто-дождевые, Cu - кучевые, Cb - кучево-дождевые. Подробнее классификацию облаков см. в Атласе облаков (PDF).
T - Температура воздуха - температура, измеренная на высоте 2 м над землей.
Td - Температура точки росы - температура, при понижении до которой содержащийся в воздухе водяной пар достигнет насыщения.
f - Относительная влажность воздуха - влажноcть воздуха, измеренная на высоте 2 м над землей.
Te - Эффективная температура - температура, которую ощущает одетый по сезону человек в тени. Характеристика душности погоды. При расчете учитывается влияние влажности воздуха и скорости ветра на теплоощущения человека.
Tes - Эффективная температура на солнце - температура, которую ощущает человек, с поправкой на солнечный нагрев. Характеристика знойности погоды. Зависит от высоты солнца над горизонтом, облачности и скорости ветра. Ночью, в пасмурную погоду, а также при ветре 12 м/с и более поправка равна нулю.
P - Атмосферное давление - приведенное к уровню моря атмосферное давление.
Po - Атмосферное давление - измеренное на уровне метеостанции атмосферное давление.
Tmin - Минимальная температура - минимум температуры воздуха на высоте 2 м над землей.
Tmax - Максимальная температура - максимум температуры воздуха на высоте 2 м над землей.
R - Количество осадков - Количество выпавших осадков за период времени, мм. При наведении курсора мыши на число - период времени, за который выпало указанное количество осадков.
R24 - Количество осадков - Количество выпавших осадков за 24 часа, мм.
S - Снежный покров - Высота снежного покрова, см. При наведении курсора мыши на число - состояние снежного покрова и степень покрытия местности в баллах.